• Processing (Info)

  • MPEC 2022-L01 : 2022 KL6

    The following Minor Planet Electronic Circular may be linked-to from your own Web pages, but must not otherwise be redistributed electronically.

    A form allowing access to any MPEC is at the bottom of this page.


    Read MPEC 2022-K184 Read MPEC 2022-L02


    M.P.E.C. 2022-L01                                  Issued 2022 June 1, 00:53 UT
    
         The Minor Planet Electronic Circulars contain information on unusual
             minor planets and routine data on comets.  They are published
        on behalf of Division F of the International Astronomical Union by the
              Minor Planet Center, Smithsonian Astrophysical Observatory,
                              Cambridge, MA 02138, U.S.A.
    
                 Prepared using the Tamkin Foundation Computer Network
    
                                  MPC@CFA.HARVARD.EDU
                URL https://www.minorplanetcenter.net/    ISSN 1523-6714
    
                                    2022 KL6                                 
    
    
    Observations:
         K22K06L  C2022 05 27.46107215 01 07.099+21 21 47.99         20.05GVEL001F52
         K22K06L  C2022 05 27.47290715 01 19.466+21 20 16.72               VEL001F52
         K22K06L* C2022 05 30.45770915 51 57.677+15 33 39.30         20.37wUEL001F52
         K22K06L  C2022 05 30.46982615 52 06.175+15 32 18.02         20.31wUEL001F52
         K22K06L  C2022 05 30.48198115 52 14.712+15 30 56.33         20.25wUEL001F52
         K22K06L  C2022 05 30.49407615 52 23.301+15 29 34.00         20.28wUEL001F52
         K22K06L  C2022 05 30.55396915 53 06.705+15 22 43.83               VEL001F52
         K22K06L  C2022 05 30.55442515 53 07.067+15 22 40.40         20.07GVEL001F52
         K22K06L 2C2022 05 30.92961515 58 44.488+14 42 18.69         19.8 GVEL001J04
         K22K06L KC2022 05 30.93002615 58 34.31 +14 40 55.9          20.1 GVEL001104
         K22K06L KC2022 05 30.93581315 58 38.29 +14 40 19.8          20.1 GVEL001104
         K22K06L KC2022 05 30.94063715 58 41.60 +14 39 49.2          19.7 GVEL001104
         K22K06L 1C2022 05 30.94332 15 58 43.11 +14 38 54.9          20.2 VXEL001033
         K22K06L 1C2022 05 30.94395 15 58 43.52 +14 38 51.0          20.1 VXEL001033
         K22K06L 1C2022 05 30.94459 15 58 43.95 +14 38 47.1          20.1 VXEL001033
         K22K06L KC2022 05 31.13847716 01 26.02 +14 19 28.0          20.0 VuEL001H21
         K22K06L KC2022 05 31.14286216 01 28.96 +14 19 01.5          19.9 VuEL001H21
         K22K06L KC2022 05 31.14724316 01 31.92 +14 18 35.5          20.2 VuEL001H21
         K22K06L mC2022 05 31.25466816 02 50.028+14 08 18.67         20.21GVEL001I52
         K22K06L  C2022 05 31.25687016 02 53.728+14 07 51.33         20.3 GVEL001654
         K22K06L mC2022 05 31.26046516 02 53.711+14 07 43.61         20.40GVEL001I52
         K22K06L mC2022 05 31.26605516 02 57.232+14 07 09.48         20.11GVEL001I52
         K22K06L  C2022 05 31.31965316 03 33.606+14 01 28.61         20.4 GVEL001654
         K22K06L  C2022 05 31.38203816 04 13.213+13 54 59.25         20.3 GVEL001654
         K22K06L  C2022 05 31.42949716 04 44.010+13 49 57.93         20.3 GVEL001654
         K22K06L KC2022 05 31.87086916 10 27.52 +13 05 05.1          20.1 GXEL001595
         K22K06L KC2022 05 31.89486116 10 42.18 +13 02 47.2                XEL001595
         K22K06L KC2022 05 31.90203716 10 50.076+13 02 24.40         20.7 GVEL001B37
         K22K06L KC2022 05 31.91529516 10 58.128+13 01 07.75         20.7 GVEL001B37
         K22K06L KC2022 05 31.92007516 11 00.862+12 59 50.68         19.9 GVEL001J95
         K22K06L KC2022 05 31.92733416 11 05.371+12 59 08.38         20.4 GVEL001J95
         K22K06L KC2022 05 31.92855316 11 06.060+12 59 51.36         20.2 GVEL001B37
         K22K06L KC2022 05 31.93330616 11 09.050+12 58 34.21         20.4 GVEL001J95
         K22K06L KC2022 05 31.93711216 11 11.381+12 58 12.47         20.3 GVEL001J95
    
    Observer details:
    033 Karl Schwarzschild Observatory, Tautenburg.  Observers S. Melnikov, C.
        Hoegner, U. Laux, F. Ludwig, B. Stecklum.  Measurer B. Stecklum.  1.34-m
        f/3 Schmidt + CCD.
    104 San Marcello Pistoiese.  Observers P. Bacci, M. Maestripieri.  Measurers
        P. Bacci, L. Tesi, G. Fagioli.  0.60-m F4 Reflector + CCD.
    595 Farra d'Isonzo.  Observers E. Pettarin, M. Vivona.  Measurer E. Pettarin.
        0.61-m f/4.5 reflector + CCD.
    654 Table Mountain Observatory, Wrightwood-PHMC.  Observers N. Evans, P. Choi,
        N. Saini, C. Zhai, R. Trahan, M. Shao.  1.0-m Reflector + CCD.
    B37 Obs. de L Ametlla del Valles, Barcelona.  Observer A. Garrigos.  0.51-m
        f/4.0 0.51-m f/4.0 reflector + CCD.
    F52 Pan-STARRS 2, Haleakala.  Observers J. Bulger, K. Chambers, T. Dukes, T.
        Lowe, A. Schultz, I. Smith.  Measurers S. Chastel, M. Huber, Y.
        Ramanjooloo, R. Wainscoat, R. Weryk, K. Chambers, T. de Boer, J. Fairlamb,
        H. Gao, C.-C. Lin, E. Magnier.  1.8-m Ritchey-Chretien + CCD.
    H21 Astronomical Research Observatory, Westfield.  Observer R. Holmes.
        Measurers T. Linder, R. Holmes, L. Horn.  0.76-m f/3.0 astrograph + CCD.
    I52 Steward Observatory, Mt. Lemmon Station.  Observer A. Serrano.  Measurers
        E. J. Christensen, D. Fay, J. B. Fazekas, D. C. Fuls, A. R. Gibbs, A. D.
        Grauer, H. Groeller, J. K. Hogan, R. A. Kowalski, S. M. Larson, G. J.
        Leonard, D. Rankin, R. L. Seaman, A. Serrano, F. C. Shelly, K. W.
        Wierzchos.  1.0-m prime focus + CCD.
    J04 ESA Optical Ground Station, Tenerife.  Observers P. Ruiz, M. Micheli, D.
        Fohring, L. Conversi, D. Koschny.  Measurers M. Micheli, R. Kresken, A.
        Knofel, M. Busch, E. Schwab.  1.0-m f/4.4 reflector + CCD.
    J95 Great Shefford.  Observer P. Birtwhistle.  0.41-m f/6.3 Schmidt-Cassegrain
        + CCD.
    
    Orbital elements:
    2022 KL6                                                 Earth MOID = 0.0044 AU
    Epoch 2022 Jan. 21.0 TT = JDT 2459600.5                 Veres                   
    M 290.68753              (2000.0)            P               Q                  
    n   0.74403390     Peri.  351.58599     -0.86191462     +0.50678159             
    a   1.2061673      Node   218.87814     -0.46365938     -0.80098135             
    e   0.1710506      Incl.    1.51564     -0.20523929     -0.31874957             
    P   1.32           H   26.93          G   0.15           U   6                  
    Residuals in seconds of arc
    220527 F52  0.1+  0.1-    220530 033  0.1+  0.2-    220531 654  0.0   0.1-
    220527 F52  0.2-  0.1-    220530 033  0.3-  0.1-    220531 595  0.8+  0.2-
    220530 F52  0.1+  0.2-    220530 033  0.5-  0.1+    220531 595  0.5+  0.2-
    220530 F52  0.2+  0.3-    220531 H21  0.5-  0.4-    220531 B37  0.5-  0.6+
    220530 F52  0.0   0.0     220531 H21  0.5-  0.6-    220531 B37  0.1+  0.2-
    220530 F52  0.4+  0.5-    220531 H21  0.0   0.3-    220531 J95  0.0   0.4+
    220530 F52  0.2-  0.1+    220531 I52  0.1+  0.1+    220531 J95  0.3+  0.2-
    220530 F52  0.2+  0.1-    220531 654  0.0   0.2-    220531 B37  0.2-  0.5-
    220530 J04  0.5+  0.3+    220531 I52  0.1+  0.2+    220531 J95  0.2+  0.0
    220530 104  0.4-  0.3+    220531 I52  0.2-  0.2+    220531 J95  0.0   0.1+
    220530 104  0.0   0.5+    220531 654  0.1-  0.2-
    220530 104  0.3+  0.1+    220531 654  0.1+  0.2-
    
    Ephemeris:
    2022 KL6                 a,e,i = 1.21, 0.17, 2                   q = 0.9999
    Date    TT    R. A. (2000) Decl.     Delta      r    Elong.  Phase     V
    2022 05 02    08 16 06.2 +19 45 02   0.04331 1.0014    80.5    97.1    23.6
    ...
    2022 05 17    10 41 41.8 +29 37 26   0.02156 1.0130    94.4    84.4    21.6
    ...
    2022 05 25    14 05 30.3 +26 05 40   0.01859 1.0235   124.7    54.4    20.3
    ...
    2022 05 31    15 59 27.4 +14 36 41   0.02399 1.0330   142.8    36.4    20.4
    2022 06 01    16 11 50.5 +12 55 47   0.02534 1.0347   144.7    34.5    20.5
    2022 06 02    16 22 48.5 +11 22 13   0.02678 1.0365   146.3    32.9    20.5
    ...
    2022 06 08    17 07 41.1 +04 15 29   0.03679 1.0478   152.9    26.2    21.0
    ...
    2022 06 16    17 37 45.6 -01 24 53   0.05254 1.0647   158.1    20.9    21.7
    ...
    2022 07 01    18 01 53.4 -07 30 28   0.08803 1.1008   162.1    16.5    22.7
    
                          (Last issue was M.P.E.C. 2022-K184)                       
    
    M. P. C. Staff               (C) Copyright 2022 MPC           M.P.E.C. 2022-L01
    


    Read MPEC 2022-K184 Read MPEC 2022-L02


    MPEC number:

    Enter an MPEC number in one of the following forms:

    • 1997-B01 (the full form)
    • J97B01 (the packed version of the full form)
    • B01 (the abbreviated form)